FW3806 Weather Reports


Display with metric or nautical units.
time (UTC)temp
F
wind
direction
speed
MPH
gust
MPH
rain 1hr
in
rain 24hr
in
rain mn
in
humidity
%
barometer
mb
20260506230051 83 117 4.0 9.0 0.00 0.00 0.00 18 1011.4
20260506224547 83 206 5.0 11.0 0.00 0.00 0.00 18 1011.5
20260506223046 82 143 0.0 10.0 0.00 0.00 0.00 18 1011.6
20260506221545 82 154 4.0 9.0 0.00 0.00 0.00 18 1012.0
20260506220056 82 111 5.0 10.0 0.00 0.00 0.00 19 1012.3
20260506214544 81 105 2.0 11.0 0.00 0.00 0.00 20 1012.5
20260506213040 82 151 4.0 12.0 0.00 0.00 0.00 20 1012.8
20260506211538 82 114 5.0 12.0 0.00 0.00 0.00 19 1012.9
20260506210036 81 146 4.0 12.0 0.00 0.00 0.00 20 1013.1
20260506204536 80 50 5.0 13.0 0.00 0.00 0.00 21 1013.2
20260506203057 80 98 6.0 12.0 0.00 0.00 0.00 20 1013.2
20260506201533 80 64 3.0 10.0 0.00 0.00 0.00 21 1013.3
20260506200043 79 73 0.0 7.0 0.00 0.00 0.00 21 1013.5
20260506194529 78 23 2.0 10.0 0.00 0.00 0.00 23 1013.6
20260506193028 78 110 4.0 10.0 0.00 0.00 0.00 22 1013.8
20260506191528 78 120 0.0 7.0 0.00 0.00 0.00 22 1014.0
20260506190034 78 113 3.0 8.0 0.00 0.00 0.00 22 1014.1
20260506184523 76 103 4.0 12.0 0.00 0.00 0.00 24 1014.2
20260506183023 77 207 3.0 14.0 0.00 0.00 0.00 23 1014.3
20260506181523 77 168 5.0 10.0 0.00 0.00 0.00 23 1014.3
20260506180021 76 104 4.0 8.0 0.00 0.00 0.00 24 1014.4
20260506174519 76 105 1.0 5.0 0.00 0.00 0.00 23 1014.4
20260506173017 74 248 0.0 6.0 0.00 0.00 0.00 25 1014.4
20260506171517 74 24 2.0 14.0 0.00 0.00 0.00 25 1014.5
20260506170013 74 328 3.0 14.0 0.00 0.00 0.00 26 1014.3
20260506164513 73 333 8.0 14.0 0.00 0.00 0.00 26 1014.2
20260506163007 72 311 6.0 14.0 0.00 0.00 0.00 26 1014.2
20260506161507 71 313 6.0 16.0 0.00 0.00 0.00 26 1014.2
20260506160002 71 294 8.0 16.0 0.00 0.00 0.00 26 1014.2
20260506154559 69 330 8.0 17.0 0.00 0.00 0.00 27 1014.3
20260506153109 67 12 3.0 7.0 0.00 0.00 0.00 32 1014.2
20260506151551 67 70 1.0 8.0 0.00 0.00 0.00 32 1014.1
20260506150047 66 6 0.0 7.0 0.00 0.00 0.00 33 1014.1
20260506144545 65 74 0.0 10.0 0.00 0.00 0.00 35 1014.0
20260506143042 64 15 0.0 4.0 0.00 0.00 0.00 35 1014.0
20260506141540 63 39 1.0 9.0 0.00 0.00 0.00 34 1013.7
20260506140039 61 349 2.0 8.0 0.00 0.00 0.00 34 1013.7
20260506134538 60 21 1.0 8.0 0.00 0.00 0.00 34 1013.6
20260506133036 59 327 0.0 5.0 0.00 0.00 0.00 35 1013.3
20260506131537 59 340 1.0 5.0 0.00 0.00 0.00 35 1013.2
20260506130033 58 290 1.0 6.0 0.00 0.00 0.00 35 1012.8
20260506124531 59 335 1.0 5.0 0.00 0.00 0.00 34 1012.6
20260506123029 59 332 3.0 8.0 0.00 0.00 0.00 34 1012.5
20260506121528 60 300 3.0 9.0 0.00 0.00 0.00 33 1012.4
20260506120027 61 340 4.0 10.0 0.00 0.00 0.00 32 1012.4
20260506114526 60 330 5.0 10.0 0.00 0.00 0.00 34 1012.3
20260506113024 58 31 0.0 7.0 0.00 0.00 0.00 34 1012.2
20260506111528 56 323 2.0 6.0 0.00 0.00 0.00 37 1012.1
20260506110021 56 287 0.0 0.0 0.00 0.00 0.00 38 1012.0
20260506104520 56 311 0.0 0.0 0.00 0.00 0.00 38 1011.9
20260506103017 56 311 0.0 0.0 0.00 0.00 0.00 38 1011.7
20260506101514 57 93 0.0 3.0 0.00 0.00 0.00 37 1011.5
20260506100011 57 120 0.0 0.0 0.00 0.00 0.00 37 1011.1
20260506094508 57 283 0.0 0.0 0.00 0.00 0.00 37 1010.9
20260506093006 57 283 0.0 1.0 0.00 0.00 0.00 37 1010.6
20260506091505 58 283 0.0 0.0 0.00 0.00 0.00 36 1010.5
20260506090111 59 283 0.0 0.0 0.00 0.00 0.00 35 1010.6
20260506084633 59 283 0.0 0.0 0.00 0.00 0.00 35 1010.5
20260506083058 60 283 0.0 0.0 0.00 0.00 0.00 33 1010.7
20260506081600 63 281 0.0 0.0 0.00 0.00 0.00 30 1010.7
20260506073049 65 271 0.0 4.0 0.00 0.00 0.00 29 1010.5
20260506071548 65 294 0.0 4.0 0.00 0.00 0.00 29 1010.5
20260506061543 65 292 0.0 0.0 0.00 0.00 0.00 29 1010.2
20260506044532 66 335 0.0 0.0 0.00 0.00 0.00 31 1009.3
20260506043031 66 335 0.0 2.0 0.00 0.00 0.00 30 1009.2
20260506041546 67 139 0.0 0.0 0.00 0.00 0.00 30 1009.1
20260506040032 68 139 0.0 0.0 0.00 0.00 0.00 29 1008.9
20260506034543 69 139 0.0 0.0 0.00 0.00 0.00 28 1008.5
20260506033028 69 127 0.0 0.0 0.00 0.00 0.00 27 1008.2
20260506031528 70 167 0.0 3.0 0.00 0.00 0.00 27 1007.9
20260506030027 71 154 2.0 7.0 0.00 0.00 0.00 25 1007.6
20260506024529 71 128 2.0 5.0 0.00 0.00 0.00 23 1007.4
20260506023026 71 146 3.0 8.0 0.00 0.00 0.00 23 1007.2
20260506021525 72 199 1.0 5.0 0.00 0.00 0.00 21 1007.0
20260506020025 72 160 3.0 6.0 0.00 0.00 0.00 20 1006.9
20260506014524 73 100 0.0 5.0 0.00 0.00 0.00 19 1006.8
20260506013036 73 117 0.0 5.0 0.00 0.00 0.00 19 1006.7
20260506011526 73 97 0.0 5.0 0.00 0.00 0.00 19 1006.7
20260506010025 74 146 0.0 7.0 0.00 0.00 0.00 20 1006.7
20260506004522 73 99 2.0 6.0 0.00 0.00 0.00 20 1006.6
20260506003021 74 134 4.0 8.0 0.00 0.00 0.00 20 1006.6
20260506001520 74 124 3.0 6.0 0.00 0.00 0.00 19 1006.6
20260506000019 73 99 0.0 12.0 0.00 0.00 0.00 20 1006.5
20260505234518 74 122 0.0 3.0 0.00 0.00 0.00 20 1006.5
20260505233025 73 105 0.0 1.0 0.00 0.00 0.00 21 1006.5
20260505231516 73 329 5.0 10.0 0.00 0.00 0.00 20 1006.5